{"data":{"norad_id":54079,"intl_designator":"2022-136AE","name":"STARLINK-5175","alt_names":[],"object_type":"PAYLOAD","status":"ACTIVE","operator":null,"country":"US","launch_date":"2022-10-20","launch_site_code":"AFETR","launch_vehicle":null,"mission":null,"orbit_class":"UNKNOWN","rcs_meters":null,"size_class":null,"mass_kg":null,"dimensions":null,"purposes":["comms"],"wikipedia_slug":null,"has_3d_model":false,"image_url":null,"decayed_at":null,"tle_current":{"epoch":"2026-05-24T22:48:11.600064Z","epoch_age_seconds":75718,"freshness":"FRESH","line1":"1 54079U 22136AE  26144.95013426 -.00002690  00000+0 -15090-3 0  9992","line2":"2 54079  53.2142 351.9967 0001495  97.1142 263.0020 15.08852493198496","mean_motion":15.08852493,"eccentricity":0.0001495,"inclination_deg":53.2142,"raan_deg":351.9967,"arg_perigee_deg":97.1142,"mean_anomaly_deg":263.002,"bstar":-0.0001509,"rev_number":19849,"period_min":95.436764473703,"perigee_km":538.67098571512,"apogee_km":540.73942053385,"semimajor_km":6917.8422031245,"source":"CELESTRAK","updated_at":"2026-05-25T13:38:17.652900Z"}}}